Year,Month,Day,Hour,Minute,Value (Times are PST for temperature in C)
2010,02,23,00,00,1.80
2010,02,23,00,01,1.80
2010,02,23,00,02,1.80
2010,02,23,00,03,1.80
2010,02,23,00,04,1.80
2010,02,23,00,05,1.80
2010,02,23,00,06,1.80
2010,02,23,00,07,1.90
2010,02,23,00,08,1.90
2010,02,23,00,09,1.90
2010,02,23,00,10,1.90
2010,02,23,00,11,1.90
2010,02,23,00,12,1.80
2010,02,23,00,13,1.80
2010,02,23,00,14,1.80
2010,02,23,00,15,1.80
2010,02,23,00,16,1.80
2010,02,23,00,17,1.90
2010,02,23,00,18,1.90
2010,02,23,00,19,1.90
2010,02,23,00,20,1.90
2010,02,23,00,21,2.00
2010,02,23,00,22,2.00
2010,02,23,00,23,2.10
2010,02,23,00,24,2.20
2010,02,23,00,25,2.20
2010,02,23,00,26,2.20
2010,02,23,00,27,2.20
2010,02,23,00,28,2.20
2010,02,23,00,29,2.20
2010,02,23,00,30,2.20
2010,02,23,00,31,2.20
2010,02,23,00,32,2.20
2010,02,23,00,33,2.20
2010,02,23,00,34,2.20
2010,02,23,00,35,2.20
2010,02,23,00,36,2.20
2010,02,23,00,37,2.10
2010,02,23,00,38,2.10
2010,02,23,00,39,2.10
2010,02,23,00,40,2.10
2010,02,23,00,41,2.10
2010,02,23,00,42,2.20
2010,02,23,00,43,2.30
2010,02,23,00,44,2.30
2010,02,23,00,45,2.30
2010,02,23,00,46,2.30
2010,02,23,00,47,2.30
2010,02,23,00,48,2.20
2010,02,23,00,49,2.20
2010,02,23,00,50,2.20
2010,02,23,00,51,2.20
2010,02,23,00,52,2.20
2010,02,23,00,53,2.30
2010,02,23,00,54,2.30
2010,02,23,00,55,2.30
2010,02,23,00,56,2.30
2010,02,23,00,57,2.30
2010,02,23,00,58,2.30
2010,02,23,00,59,2.30
2010,02,23,01,00,2.30
2010,02,23,01,01,2.30
2010,02,23,01,02,2.20
2010,02,23,01,03,2.20
2010,02,23,01,04,2.20
2010,02,23,01,05,2.20
2010,02,23,01,06,2.20
2010,02,23,01,07,2.20
2010,02,23,01,08,2.30
2010,02,23,01,09,2.30
2010,02,23,01,10,2.30
2010,02,23,01,11,2.30
2010,02,23,01,12,2.30
2010,02,23,01,13,2.20
2010,02,23,01,14,2.20
2010,02,23,01,15,2.30
2010,02,23,01,16,2.30
2010,02,23,01,17,2.50
2010,02,23,01,18,2.50
2010,02,23,01,19,2.50
2010,02,23,01,20,2.40
2010,02,23,01,21,2.40
2010,02,23,01,22,2.30
2010,02,23,01,23,2.30
2010,02,23,01,24,2.40
2010,02,23,01,25,2.40
2010,02,23,01,26,2.40
2010,02,23,01,27,2.40
2010,02,23,01,28,2.40
2010,02,23,01,29,2.50
2010,02,23,01,30,2.50
2010,02,23,01,31,2.60
2010,02,23,01,32,2.50
2010,02,23,01,33,2.40
2010,02,23,01,34,2.40
2010,02,23,01,35,2.40
2010,02,23,01,36,2.40
2010,02,23,01,37,2.40
2010,02,23,01,38,2.40
2010,02,23,01,39,2.40
2010,02,23,01,40,2.40
2010,02,23,01,41,2.40
2010,02,23,01,42,2.50
2010,02,23,01,43,2.50
2010,02,23,01,44,2.50
2010,02,23,01,45,2.50
2010,02,23,01,46,2.50
2010,02,23,01,47,2.50
2010,02,23,01,48,2.40
2010,02,23,01,49,2.40
2010,02,23,01,50,2.40
2010,02,23,01,51,2.50
2010,02,23,01,52,2.50
2010,02,23,01,53,2.50
2010,02,23,01,54,2.50
2010,02,23,01,55,2.40
2010,02,23,01,56,2.40
2010,02,23,01,57,2.40
2010,02,23,01,58,2.40
2010,02,23,01,59,2.40
2010,02,23,02,00,2.40
2010,02,23,02,01,2.40
2010,02,23,02,02,2.40
2010,02,23,02,03,2.50
2010,02,23,02,04,2.50
2010,02,23,02,05,2.60
2010,02,23,02,06,2.70
2010,02,23,02,07,2.70
2010,02,23,02,08,2.70
2010,02,23,02,09,2.70
2010,02,23,02,10,2.60
2010,02,23,02,11,2.60
2010,02,23,02,12,2.50
2010,02,23,02,13,2.50
2010,02,23,02,14,2.50
2010,02,23,02,15,2.50
2010,02,23,02,16,2.50
2010,02,23,02,17,2.50
2010,02,23,02,18,2.40
2010,02,23,02,19,2.40
2010,02,23,02,20,2.50
2010,02,23,02,21,2.50
2010,02,23,02,22,2.50
2010,02,23,02,23,2.50
2010,02,23,02,24,2.60
2010,02,23,02,25,2.60
2010,02,23,02,26,2.50
2010,02,23,02,27,2.50
2010,02,23,02,28,2.60
2010,02,23,02,29,2.60
2010,02,23,02,30,2.60
2010,02,23,02,31,2.60
2010,02,23,02,32,2.60
2010,02,23,02,33,2.60
2010,02,23,02,34,2.60
2010,02,23,02,35,2.70
2010,02,23,02,36,2.70
2010,02,23,02,37,2.60
2010,02,23,02,38,2.60
2010,02,23,02,39,2.60
2010,02,23,02,40,2.60
2010,02,23,02,41,2.60
2010,02,23,02,42,2.60
2010,02,23,02,43,2.60
2010,02,23,02,44,2.60
2010,02,23,02,45,2.70
2010,02,23,02,46,2.70
2010,02,23,02,47,2.70
2010,02,23,02,48,2.70
2010,02,23,02,49,2.70
2010,02,23,02,50,2.70
2010,02,23,02,51,2.80
2010,02,23,02,52,2.80
2010,02,23,02,53,2.80
2010,02,23,02,54,2.80
2010,02,23,02,55,2.80
2010,02,23,02,56,2.80
2010,02,23,02,57,2.80
2010,02,23,02,58,2.80
2010,02,23,02,59,2.90
2010,02,23,03,00,2.90
2010,02,23,03,01,2.90
2010,02,23,03,02,3.00
2010,02,23,03,03,3.00
2010,02,23,03,04,3.00
2010,02,23,03,05,3.10
2010,02,23,03,06,3.00
2010,02,23,03,07,3.00
2010,02,23,03,08,3.10
2010,02,23,03,09,3.10
2010,02,23,03,10,3.10
2010,02,23,03,11,3.20
2010,02,23,03,12,3.20
2010,02,23,03,13,3.20
2010,02,23,03,14,3.20
2010,02,23,03,15,3.30
2010,02,23,03,16,3.30
2010,02,23,03,17,3.30
2010,02,23,03,18,3.30
2010,02,23,03,19,3.30
2010,02,23,03,20,3.30
2010,02,23,03,21,3.30
2010,02,23,03,22,3.30
2010,02,23,03,23,3.30
2010,02,23,03,24,3.30
2010,02,23,03,25,3.30
2010,02,23,03,26,3.30
2010,02,23,03,27,3.30
2010,02,23,03,28,3.30
2010,02,23,03,29,3.30
2010,02,23,03,30,3.30
2010,02,23,03,31,3.30
2010,02,23,03,32,3.30
2010,02,23,03,33,3.30
2010,02,23,03,34,3.40
2010,02,23,03,35,3.40
2010,02,23,03,36,3.40
2010,02,23,03,37,3.40
2010,02,23,03,38,3.40
2010,02,23,03,39,3.40
2010,02,23,03,40,3.40
2010,02,23,03,41,3.40
2010,02,23,03,42,3.30
2010,02,23,03,43,3.30
2010,02,23,03,44,3.30
2010,02,23,03,45,3.30
2010,02,23,03,46,3.30
2010,02,23,03,47,3.30
2010,02,23,03,48,3.40
2010,02,23,03,49,3.40
2010,02,23,03,50,3.40
2010,02,23,03,51,3.40
2010,02,23,03,52,3.40
2010,02,23,03,53,3.30
2010,02,23,03,54,3.30
2010,02,23,03,55,3.30
2010,02,23,03,56,3.30
2010,02,23,03,57,3.30
2010,02,23,03,58,3.30
2010,02,23,03,59,3.30
2010,02,23,04,00,3.20
2010,02,23,04,01,3.20
2010,02,23,04,02,3.20
2010,02,23,04,03,3.20
2010,02,23,04,04,3.20
2010,02,23,04,05,3.30
2010,02,23,04,06,3.30
2010,02,23,04,07,3.30
2010,02,23,04,08,3.30
2010,02,23,04,09,3.30
2010,02,23,04,10,3.20
2010,02,23,04,11,3.20
2010,02,23,04,12,3.20
2010,02,23,04,13,3.20
2010,02,23,04,14,3.20
2010,02,23,04,15,3.20
2010,02,23,04,16,3.20
2010,02,23,04,17,3.20
2010,02,23,04,18,3.30
2010,02,23,04,19,3.30
2010,02,23,04,20,3.30
2010,02,23,04,21,3.30
2010,02,23,04,22,3.50
2010,02,23,04,23,3.50
2010,02,23,04,24,3.60
2010,02,23,04,25,3.60
2010,02,23,04,26,3.70
2010,02,23,04,27,3.70
2010,02,23,04,28,3.80
2010,02,23,04,29,3.90
2010,02,23,04,30,3.90
2010,02,23,04,31,3.90
2010,02,23,04,32,3.90
2010,02,23,04,33,3.90
2010,02,23,04,34,3.90
2010,02,23,04,35,3.90
2010,02,23,04,36,3.90
2010,02,23,04,37,4.00
2010,02,23,04,38,4.00
2010,02,23,04,39,4.00
2010,02,23,04,40,4.00
2010,02,23,04,41,4.00
2010,02,23,04,42,4.00
2010,02,23,04,43,4.00
2010,02,23,04,44,3.90
2010,02,23,04,45,3.90
2010,02,23,04,46,3.80
2010,02,23,04,47,3.80
2010,02,23,04,48,3.80
2010,02,23,04,49,3.80
2010,02,23,04,50,3.70
2010,02,23,04,51,3.70
2010,02,23,04,52,3.60
2010,02,23,04,53,3.60
2010,02,23,04,54,3.60
2010,02,23,04,55,3.60
2010,02,23,04,56,3.60
2010,02,23,04,57,3.70
2010,02,23,04,58,3.70
2010,02,23,04,59,3.70
2010,02,23,05,00,3.70
2010,02,23,05,01,3.70
2010,02,23,05,02,3.70
2010,02,23,05,03,3.70
2010,02,23,05,04,3.70
2010,02,23,05,05,3.70
2010,02,23,05,06,3.70
2010,02,23,05,07,3.70
2010,02,23,05,08,3.70
2010,02,23,05,09,3.70
2010,02,23,05,10,3.70
2010,02,23,05,11,3.70
2010,02,23,05,12,3.70
2010,02,23,05,13,3.70
2010,02,23,05,14,3.70
2010,02,23,05,15,3.70
2010,02,23,05,16,3.70
2010,02,23,05,17,3.70
2010,02,23,05,18,3.70
2010,02,23,05,19,3.70
2010,02,23,05,20,3.70
2010,02,23,05,21,3.70
2010,02,23,05,22,3.70
2010,02,23,05,23,3.70
2010,02,23,05,24,3.70
2010,02,23,05,25,3.70
2010,02,23,05,26,3.70
2010,02,23,05,27,3.70
2010,02,23,05,28,3.80
2010,02,23,05,29,3.80
2010,02,23,05,30,3.80
2010,02,23,05,31,3.80
2010,02,23,05,32,3.80
2010,02,23,05,33,3.80
2010,02,23,05,34,3.80
2010,02,23,05,35,3.80
2010,02,23,05,36,3.80
2010,02,23,05,37,3.80
2010,02,23,05,38,3.80
2010,02,23,05,39,3.80
2010,02,23,05,40,3.80
2010,02,23,05,41,3.80
2010,02,23,05,42,3.80
2010,02,23,05,43,3.80
2010,02,23,05,44,3.70
2010,02,23,05,45,3.80
2010,02,23,05,46,3.80
2010,02,23,05,47,3.80
2010,02,23,05,48,3.80
2010,02,23,05,49,3.80
2010,02,23,05,50,3.80
2010,02,23,05,51,3.80
2010,02,23,05,52,3.80
2010,02,23,05,53,3.80
2010,02,23,05,54,3.80
2010,02,23,05,55,3.80
2010,02,23,05,56,3.80
2010,02,23,05,57,3.80
2010,02,23,05,58,3.80
2010,02,23,05,59,3.80
2010,02,23,06,00,3.80
2010,02,23,06,01,3.80
2010,02,23,06,02,3.80
2010,02,23,06,03,3.80
2010,02,23,06,04,3.80
2010,02,23,06,05,3.80
2010,02,23,06,06,3.80
2010,02,23,06,07,3.80
2010,02,23,06,08,3.80
2010,02,23,06,09,3.80
2010,02,23,06,10,3.80
2010,02,23,06,11,3.80
2010,02,23,06,12,3.80
2010,02,23,06,13,3.80
2010,02,23,06,14,3.80
2010,02,23,06,15,3.80
2010,02,23,06,16,3.80
2010,02,23,06,17,3.80
2010,02,23,06,18,3.80
2010,02,23,06,19,3.80
2010,02,23,06,20,3.80
2010,02,23,06,21,3.80
2010,02,23,06,22,3.80
2010,02,23,06,23,3.80
2010,02,23,06,24,3.90
2010,02,23,06,25,3.90
2010,02,23,06,26,4.00
2010,02,23,06,27,4.00
2010,02,23,06,28,4.10
2010,02,23,06,29,4.10
2010,02,23,06,30,4.10
2010,02,23,06,31,4.10
2010,02,23,06,32,4.10
2010,02,23,06,33,4.10
2010,02,23,06,34,4.00
2010,02,23,06,35,4.00
2010,02,23,06,36,3.90
2010,02,23,06,37,3.90
2010,02,23,06,38,3.80
2010,02,23,06,39,3.80
2010,02,23,06,40,3.80
2010,02,23,06,41,3.80
2010,02,23,06,42,3.80
2010,02,23,06,43,3.80
2010,02,23,06,44,3.90
2010,02,23,06,45,3.90
2010,02,23,06,46,3.90
2010,02,23,06,47,3.90
2010,02,23,06,48,3.90
2010,02,23,06,49,3.90
2010,02,23,06,50,3.90
2010,02,23,06,51,4.00
2010,02,23,06,52,4.00
2010,02,23,06,53,4.10
2010,02,23,06,54,4.10
2010,02,23,06,55,4.10
2010,02,23,06,56,4.10
2010,02,23,06,57,4.10
2010,02,23,06,58,4.20
2010,02,23,06,59,4.20
2010,02,23,07,00,4.10
2010,02,23,07,01,4.10
2010,02,23,07,02,4.10
2010,02,23,07,03,4.10
2010,02,23,07,04,4.00
2010,02,23,07,05,4.00
2010,02,23,07,06,3.90
2010,02,23,07,07,3.80
2010,02,23,07,08,3.80
2010,02,23,07,09,3.90
2010,02,23,07,10,4.00
2010,02,23,07,11,3.90
2010,02,23,07,12,3.90
2010,02,23,07,13,3.90
2010,02,23,07,14,3.80
2010,02,23,07,15,3.80
2010,02,23,07,16,3.80
2010,02,23,07,17,3.80
2010,02,23,07,18,3.80
2010,02,23,07,19,3.80
2010,02,23,07,20,3.80
2010,02,23,07,21,3.90
2010,02,23,07,22,3.90
2010,02,23,07,23,3.90
2010,02,23,07,24,3.90
2010,02,23,07,25,3.90
2010,02,23,07,26,3.90
2010,02,23,07,27,4.00
2010,02,23,07,28,4.00
2010,02,23,07,29,4.00
2010,02,23,07,30,4.00
2010,02,23,07,31,4.10
2010,02,23,07,32,4.10
2010,02,23,07,33,4.10
2010,02,23,07,34,4.10
2010,02,23,07,35,4.10
2010,02,23,07,36,4.10
2010,02,23,07,37,4.10
2010,02,23,07,38,4.00
2010,02,23,07,39,3.90
2010,02,23,07,40,3.90
2010,02,23,07,41,3.80
2010,02,23,07,42,3.80
2010,02,23,07,43,3.80
2010,02,23,07,44,3.70
2010,02,23,07,45,3.70
2010,02,23,07,46,3.70
2010,02,23,07,47,3.80
2010,02,23,07,48,3.90
2010,02,23,07,49,4.00
2010,02,23,07,50,4.10
2010,02,23,07,51,4.10
2010,02,23,07,52,4.10
2010,02,23,07,53,4.10
2010,02,23,07,54,4.10
2010,02,23,07,55,4.10
2010,02,23,07,56,4.10
2010,02,23,07,57,4.10
2010,02,23,07,58,4.00
2010,02,23,07,59,4.00
2010,02,23,08,00,3.90
2010,02,23,08,01,3.80
2010,02,23,08,02,3.80
2010,02,23,08,03,3.80
2010,02,23,08,04,3.90
2010,02,23,08,05,3.90
2010,02,23,08,06,3.90
2010,02,23,08,07,4.00
2010,02,23,08,08,4.00
2010,02,23,08,09,4.10
2010,02,23,08,10,4.10
2010,02,23,08,11,4.20
2010,02,23,08,12,4.30
2010,02,23,08,13,4.30
2010,02,23,08,14,4.30
2010,02,23,08,15,4.40
2010,02,23,08,16,4.40
2010,02,23,08,17,4.50
2010,02,23,08,18,4.60
2010,02,23,08,19,4.70
2010,02,23,08,20,4.80
2010,02,23,08,21,4.80
2010,02,23,08,22,4.80
2010,02,23,08,23,4.90
2010,02,23,08,24,5.00
2010,02,23,08,25,5.00
2010,02,23,08,26,5.10
2010,02,23,08,27,5.10
2010,02,23,08,28,5.20
2010,02,23,08,29,5.20
2010,02,23,08,30,5.30
2010,02,23,08,31,5.40
2010,02,23,08,32,5.50
2010,02,23,08,33,5.70
2010,02,23,08,34,5.80
2010,02,23,08,35,5.90
2010,02,23,08,36,6.00
2010,02,23,08,37,6.10
2010,02,23,08,38,6.20
2010,02,23,08,39,6.20
2010,02,23,08,40,6.30
2010,02,23,08,41,6.40
2010,02,23,08,42,6.40
2010,02,23,08,43,6.50
2010,02,23,08,44,6.50
2010,02,23,08,45,6.60
2010,02,23,08,46,6.70
2010,02,23,08,47,6.70
2010,02,23,08,48,6.80
2010,02,23,08,49,6.80
2010,02,23,08,50,6.90
2010,02,23,08,51,6.90
2010,02,23,08,52,7.00
2010,02,23,08,53,7.10
2010,02,23,08,54,7.20
2010,02,23,08,55,7.20
2010,02,23,08,56,7.20
2010,02,23,08,57,7.20
2010,02,23,08,58,7.20
2010,02,23,08,59,7.30
2010,02,23,09,00,7.30
2010,02,23,09,01,7.30
2010,02,23,09,02,7.30
2010,02,23,09,03,7.40
2010,02,23,09,04,7.40
2010,02,23,09,05,7.30
2010,02,23,09,06,7.30
2010,02,23,09,07,7.30
2010,02,23,09,08,7.30
2010,02,23,09,09,7.30
2010,02,23,09,10,7.30
2010,02,23,09,11,7.30
2010,02,23,09,12,7.30
2010,02,23,09,13,7.40
2010,02,23,09,14,7.40
2010,02,23,09,15,7.40
2010,02,23,09,16,7.40
2010,02,23,09,17,7.40
2010,02,23,09,18,7.40
2010,02,23,09,19,7.50
2010,02,23,09,20,7.50
2010,02,23,09,21,7.40
2010,02,23,09,22,7.40
2010,02,23,09,23,7.40
2010,02,23,09,24,7.50
2010,02,23,09,25,7.50
2010,02,23,09,26,7.50
2010,02,23,09,27,7.50
2010,02,23,09,28,7.60
2010,02,23,09,29,7.60
2010,02,23,09,30,7.70
2010,02,23,09,31,7.70
2010,02,23,09,32,7.70
2010,02,23,09,33,7.70
2010,02,23,09,34,7.80
2010,02,23,09,35,7.80
2010,02,23,09,36,7.80
2010,02,23,09,37,7.80
2010,02,23,09,38,7.80
2010,02,23,09,39,7.80
2010,02,23,09,40,7.80
2010,02,23,09,41,7.80
2010,02,23,09,42,7.80
2010,02,23,09,43,7.80
2010,02,23,09,44,7.80
2010,02,23,09,45,7.90
2010,02,23,09,46,7.90
2010,02,23,09,47,7.90
2010,02,23,09,48,7.90
2010,02,23,09,49,7.90
2010,02,23,09,50,7.90
2010,02,23,09,51,7.90
2010,02,23,09,52,7.90
2010,02,23,09,53,7.90
2010,02,23,09,54,7.90
2010,02,23,09,55,7.90
2010,02,23,09,56,7.90
2010,02,23,09,57,7.90
2010,02,23,09,58,7.90
2010,02,23,09,59,7.90
2010,02,23,10,00,7.90
2010,02,23,10,01,7.90
2010,02,23,10,02,7.90
2010,02,23,10,03,7.90
2010,02,23,10,04,7.90
2010,02,23,10,05,7.90
2010,02,23,10,06,7.90
2010,02,23,10,07,7.90
2010,02,23,10,08,7.90
2010,02,23,10,09,7.90
2010,02,23,10,10,7.90
2010,02,23,10,11,7.90
2010,02,23,10,12,7.80
2010,02,23,10,13,7.80
2010,02,23,10,14,7.70
2010,02,23,10,15,7.60
2010,02,23,10,16,7.60
2010,02,23,10,17,7.60
2010,02,23,10,18,7.60
2010,02,23,10,19,7.70
2010,02,23,10,20,7.80
2010,02,23,10,21,7.90
2010,02,23,10,22,7.90
2010,02,23,10,23,7.90
2010,02,23,10,24,8.00
2010,02,23,10,25,7.90
2010,02,23,10,26,7.90
2010,02,23,10,27,7.90
2010,02,23,10,28,7.90
2010,02,23,10,29,7.80
2010,02,23,10,30,7.80
2010,02,23,10,31,7.80
2010,02,23,10,32,7.70
2010,02,23,10,33,7.50
2010,02,23,10,34,7.40
2010,02,23,10,35,7.20
2010,02,23,10,36,7.10
2010,02,23,10,37,7.00
2010,02,23,10,38,6.80
2010,02,23,10,39,6.70
2010,02,23,10,40,6.70
2010,02,23,10,41,6.60
2010,02,23,10,42,6.50
2010,02,23,10,43,6.50
2010,02,23,10,44,6.40
2010,02,23,10,45,6.40
2010,02,23,10,46,6.30
2010,02,23,10,47,6.30
2010,02,23,10,48,6.30
2010,02,23,10,49,6.20
2010,02,23,10,50,6.20
2010,02,23,10,51,6.10
2010,02,23,10,52,6.10
2010,02,23,10,53,6.00
2010,02,23,10,54,6.00
2010,02,23,10,55,5.90
2010,02,23,10,56,5.90
2010,02,23,10,57,5.90
2010,02,23,10,58,5.90
2010,02,23,10,59,5.90
2010,02,23,11,00,5.90
2010,02,23,11,01,5.90
2010,02,23,11,02,5.80
2010,02,23,11,03,5.80
2010,02,23,11,04,5.80
2010,02,23,11,05,5.80
2010,02,23,11,06,5.80
2010,02,23,11,07,5.70
2010,02,23,11,08,5.70
2010,02,23,11,09,5.70
2010,02,23,11,10,5.70
2010,02,23,11,11,5.70
2010,02,23,11,12,5.60
2010,02,23,11,13,5.60
2010,02,23,11,14,5.60
2010,02,23,11,15,5.60
2010,02,23,11,16,5.60
2010,02,23,11,17,5.60
2010,02,23,11,18,5.60
2010,02,23,11,19,5.60
2010,02,23,11,20,5.60
2010,02,23,11,21,5.60
2010,02,23,11,22,5.60
2010,02,23,11,23,5.50
2010,02,23,11,24,5.50
2010,02,23,11,25,5.50
2010,02,23,11,26,5.50
2010,02,23,11,27,5.50
2010,02,23,11,28,5.50
2010,02,23,11,29,5.60
2010,02,23,11,30,5.60
2010,02,23,11,31,5.60
2010,02,23,11,32,5.60
2010,02,23,11,33,5.60
2010,02,23,11,34,5.60
2010,02,23,11,35,5.60
2010,02,23,11,36,5.70
2010,02,23,11,37,5.70
2010,02,23,11,38,5.70
2010,02,23,11,39,5.70
2010,02,23,11,40,5.70
2010,02,23,11,41,5.70
2010,02,23,11,42,5.70
2010,02,23,11,43,5.70
2010,02,23,11,44,5.60
2010,02,23,11,45,5.60
2010,02,23,11,46,5.60
2010,02,23,11,47,5.60
2010,02,23,11,48,5.70
2010,02,23,11,49,5.70
2010,02,23,11,50,5.70
2010,02,23,11,51,5.80
2010,02,23,11,52,5.70
2010,02,23,11,53,5.70
2010,02,23,11,54,5.70
2010,02,23,11,55,5.70
2010,02,23,11,56,5.70
2010,02,23,11,57,5.70
2010,02,23,11,58,5.70
2010,02,23,11,59,5.70
2010,02,23,12,00,5.70
2010,02,23,12,01,5.70
2010,02,23,12,02,5.70
2010,02,23,12,03,5.70
2010,02,23,12,04,5.70
2010,02,23,12,05,5.70
2010,02,23,12,06,5.80
2010,02,23,12,07,5.80
2010,02,23,12,08,5.80
2010,02,23,12,09,5.80
2010,02,23,12,10,5.80
2010,02,23,12,11,5.80
2010,02,23,12,12,5.80
2010,02,23,12,13,5.90
2010,02,23,12,14,5.90
2010,02,23,12,15,5.90
2010,02,23,12,16,5.90
2010,02,23,12,17,5.90
2010,02,23,12,18,5.90
2010,02,23,12,19,6.00
2010,02,23,12,20,6.00
2010,02,23,12,21,6.00
2010,02,23,12,22,6.10
2010,02,23,12,23,6.10
2010,02,23,12,24,6.10
2010,02,23,12,25,6.10
2010,02,23,12,26,6.10
2010,02,23,12,27,6.10
2010,02,23,12,28,6.10
2010,02,23,12,29,6.20
2010,02,23,12,30,6.20
2010,02,23,12,31,6.20
2010,02,23,12,32,6.20
2010,02,23,12,33,6.20
2010,02,23,12,34,6.20
2010,02,23,12,35,6.20
2010,02,23,12,36,6.20
2010,02,23,12,37,6.20
2010,02,23,12,38,6.20
2010,02,23,12,39,6.20
2010,02,23,12,40,6.20
2010,02,23,12,41,6.20
2010,02,23,12,42,6.20
2010,02,23,12,43,6.10
2010,02,23,12,44,6.10
2010,02,23,12,45,6.10
2010,02,23,12,46,6.10
2010,02,23,12,47,6.10
2010,02,23,12,48,6.00
2010,02,23,12,49,6.00
2010,02,23,12,50,5.90
2010,02,23,12,51,5.90
2010,02,23,12,52,5.90
2010,02,23,12,53,5.90
2010,02,23,12,54,5.90
2010,02,23,12,55,5.90
2010,02,23,12,56,5.80
2010,02,23,12,57,5.80
2010,02,23,12,58,5.80
2010,02,23,12,59,5.80
2010,02,23,13,00,5.80
2010,02,23,13,01,5.80
2010,02,23,13,02,5.80
2010,02,23,13,03,5.70
2010,02,23,13,04,5.70
2010,02,23,13,05,5.70
2010,02,23,13,06,5.70
2010,02,23,13,07,5.70
2010,02,23,13,08,5.80
2010,02,23,13,09,5.80
2010,02,23,13,10,5.80
2010,02,23,13,11,5.80
2010,02,23,13,12,5.80
2010,02,23,13,13,5.70
2010,02,23,13,14,5.70
2010,02,23,13,15,5.70
2010,02,23,13,16,5.70
2010,02,23,13,17,5.80
2010,02,23,13,18,5.70
2010,02,23,13,19,5.70
2010,02,23,13,20,5.70
2010,02,23,13,21,5.70
2010,02,23,13,22,5.70
2010,02,23,13,23,5.70
2010,02,23,13,24,5.70
2010,02,23,13,25,5.70
2010,02,23,13,26,5.70
2010,02,23,13,27,5.70
2010,02,23,13,28,5.70
2010,02,23,13,29,5.70
2010,02,23,13,30,5.70
2010,02,23,13,31,5.70
2010,02,23,13,32,5.70
2010,02,23,13,33,5.70
2010,02,23,13,34,5.70
2010,02,23,13,35,5.70
2010,02,23,13,36,5.70
2010,02,23,13,37,5.70
2010,02,23,13,38,5.70
2010,02,23,13,39,5.70
2010,02,23,13,40,5.70
2010,02,23,13,41,5.70
2010,02,23,13,42,5.70
2010,02,23,13,43,5.70
2010,02,23,13,44,5.70
2010,02,23,13,45,5.70
2010,02,23,13,46,5.70
2010,02,23,13,47,5.70
2010,02,23,13,48,5.70
2010,02,23,13,49,5.70
2010,02,23,13,50,5.70
2010,02,23,13,51,5.70
2010,02,23,13,52,5.70
2010,02,23,13,53,5.70
2010,02,23,13,54,5.70
2010,02,23,13,55,5.70
2010,02,23,13,56,5.70
2010,02,23,13,57,5.70
2010,02,23,13,58,5.70
2010,02,23,13,59,5.70
2010,02,23,14,00,5.70
2010,02,23,14,01,5.70
2010,02,23,14,02,5.70
2010,02,23,14,03,5.70
2010,02,23,14,04,5.70
2010,02,23,14,05,5.70
2010,02,23,14,06,5.70
2010,02,23,14,07,5.70
2010,02,23,14,08,5.70
2010,02,23,14,09,5.70
2010,02,23,14,10,5.70
2010,02,23,14,11,5.70
2010,02,23,14,12,5.70
2010,02,23,14,13,5.80
2010,02,23,14,14,5.80
2010,02,23,14,15,5.80
2010,02,23,14,16,5.80
2010,02,23,14,17,5.80
2010,02,23,14,18,5.80
2010,02,23,14,19,5.80
2010,02,23,14,20,5.80
2010,02,23,14,21,5.80
2010,02,23,14,22,5.70
2010,02,23,14,23,5.70
2010,02,23,14,24,5.70
2010,02,23,14,25,5.70
2010,02,23,14,26,5.70
2010,02,23,14,27,5.70
2010,02,23,14,28,5.70
2010,02,23,14,29,5.70
2010,02,23,14,30,5.70
2010,02,23,14,31,5.70
2010,02,23,14,32,5.70
2010,02,23,14,33,5.70
2010,02,23,14,34,5.80
2010,02,23,14,35,5.80
2010,02,23,14,36,5.80
2010,02,23,14,37,5.70
2010,02,23,14,38,5.70
2010,02,23,14,39,5.70
2010,02,23,14,40,5.70
2010,02,23,14,41,5.70
2010,02,23,14,42,5.70
2010,02,23,14,43,5.70
2010,02,23,14,44,5.70
2010,02,23,14,45,5.70
2010,02,23,14,46,5.70
2010,02,23,14,47,5.70
2010,02,23,14,48,5.70
2010,02,23,14,49,5.70
2010,02,23,14,50,5.60
2010,02,23,14,51,5.60
2010,02,23,14,52,5.60
2010,02,23,14,53,5.60
2010,02,23,14,54,5.60
2010,02,23,14,55,5.60
2010,02,23,14,56,5.60
2010,02,23,14,57,5.60
2010,02,23,14,58,5.60
2010,02,23,14,59,5.60
2010,02,23,15,00,5.60
2010,02,23,15,01,5.60
2010,02,23,15,02,5.60
2010,02,23,15,03,5.60
2010,02,23,15,04,5.60
2010,02,23,15,05,5.60
2010,02,23,15,06,5.60
2010,02,23,15,07,5.60
2010,02,23,15,08,5.60
2010,02,23,15,09,5.60
2010,02,23,15,10,5.60
2010,02,23,15,11,5.60
2010,02,23,15,12,5.60
2010,02,23,15,13,5.60
2010,02,23,15,14,5.60
2010,02,23,15,15,5.60
2010,02,23,15,16,5.60
2010,02,23,15,17,5.70
2010,02,23,15,18,5.70
2010,02,23,15,19,5.70
2010,02,23,15,20,5.70
2010,02,23,15,21,5.70
2010,02,23,15,22,5.70
2010,02,23,15,23,5.60
2010,02,23,15,24,5.70
2010,02,23,15,25,5.70
2010,02,23,15,26,5.70
2010,02,23,15,27,5.70
2010,02,23,15,28,5.70
2010,02,23,15,29,5.70
2010,02,23,15,30,5.70
2010,02,23,15,31,5.70
2010,02,23,15,32,5.70
2010,02,23,15,33,5.70
2010,02,23,15,34,5.70
2010,02,23,15,35,5.70
2010,02,23,15,36,5.70
2010,02,23,15,37,5.70
2010,02,23,15,38,5.70
2010,02,23,15,39,5.70
2010,02,23,15,40,5.70
2010,02,23,15,41,5.70
2010,02,23,15,42,5.70
2010,02,23,15,43,5.70
2010,02,23,15,44,5.70
2010,02,23,15,45,5.70
2010,02,23,15,46,5.70
2010,02,23,15,47,5.70
2010,02,23,15,48,5.70
2010,02,23,15,49,5.70
2010,02,23,15,50,5.70
2010,02,23,15,51,5.70
2010,02,23,15,52,5.70
2010,02,23,15,53,5.70
2010,02,23,15,54,5.70
2010,02,23,15,55,5.70
2010,02,23,15,56,5.70
2010,02,23,15,57,5.70
2010,02,23,15,58,5.70
2010,02,23,15,59,5.70
2010,02,23,16,00,5.70
2010,02,23,16,01,5.70
2010,02,23,16,02,5.70
2010,02,23,16,03,5.70
2010,02,23,16,04,5.70
2010,02,23,16,05,5.70
2010,02,23,16,06,5.70
2010,02,23,16,07,5.70
2010,02,23,16,08,5.70
2010,02,23,16,09,5.70
2010,02,23,16,10,5.70
2010,02,23,16,11,5.70
2010,02,23,16,12,5.70
2010,02,23,16,13,5.70
2010,02,23,16,14,5.70
2010,02,23,16,15,5.70
2010,02,23,16,16,5.70
2010,02,23,16,17,5.70
2010,02,23,16,18,5.70
2010,02,23,16,19,5.70
2010,02,23,16,20,5.70
2010,02,23,16,21,5.70
2010,02,23,16,22,5.70
2010,02,23,16,23,5.70
2010,02,23,16,24,5.70
2010,02,23,16,25,5.70
2010,02,23,16,26,5.80
2010,02,23,16,27,5.80
2010,02,23,16,28,5.80
2010,02,23,16,29,5.80
2010,02,23,16,30,5.80
2010,02,23,16,31,5.80
2010,02,23,16,32,5.80
2010,02,23,16,33,5.80
2010,02,23,16,34,5.80
2010,02,23,16,35,5.80
2010,02,23,16,36,5.80
2010,02,23,16,37,5.80
2010,02,23,16,38,5.80
2010,02,23,16,39,5.80
2010,02,23,16,40,5.80
2010,02,23,16,41,5.80
2010,02,23,16,42,5.80
2010,02,23,16,43,5.80
2010,02,23,16,44,5.80
2010,02,23,16,45,5.80
2010,02,23,16,46,5.80
2010,02,23,16,47,5.80
2010,02,23,16,48,5.80
2010,02,23,16,49,5.80
2010,02,23,16,50,5.80
2010,02,23,16,51,5.80
2010,02,23,16,52,5.80
2010,02,23,16,53,5.80
2010,02,23,16,54,5.80
2010,02,23,16,55,5.80
2010,02,23,16,56,5.80
2010,02,23,16,57,5.80
2010,02,23,16,58,5.80
2010,02,23,16,59,5.80
2010,02,23,17,00,5.80
2010,02,23,17,01,5.80
2010,02,23,17,02,5.80
2010,02,23,17,03,5.80
2010,02,23,17,04,5.80
2010,02,23,17,05,5.80
2010,02,23,17,06,5.80
2010,02,23,17,07,5.80
2010,02,23,17,08,5.80
2010,02,23,17,09,5.80
2010,02,23,17,10,5.80
2010,02,23,17,11,5.80
2010,02,23,17,12,5.80
2010,02,23,17,13,5.80
2010,02,23,17,14,5.80
2010,02,23,17,15,5.80
2010,02,23,17,16,5.80
2010,02,23,17,17,5.70
2010,02,23,17,18,5.70
2010,02,23,17,19,5.70
2010,02,23,17,20,5.70
2010,02,23,17,21,5.70
2010,02,23,17,22,5.70
2010,02,23,17,23,5.70
2010,02,23,17,24,5.70
2010,02,23,17,25,5.70
2010,02,23,17,26,5.70
2010,02,23,17,27,5.70
2010,02,23,17,28,5.70
2010,02,23,17,29,5.70
2010,02,23,17,30,5.70
2010,02,23,17,31,5.70
2010,02,23,17,32,5.70
2010,02,23,17,33,5.70
2010,02,23,17,34,5.70
2010,02,23,17,35,5.60
2010,02,23,17,36,5.60
2010,02,23,17,37,5.60
2010,02,23,17,38,5.60
2010,02,23,17,39,5.60
2010,02,23,17,40,5.60
2010,02,23,17,41,5.60
2010,02,23,17,42,5.60
2010,02,23,17,43,5.60
2010,02,23,17,44,5.60
2010,02,23,17,45,5.60
2010,02,23,17,46,5.60
2010,02,23,17,47,5.60
2010,02,23,17,48,5.60
2010,02,23,17,49,5.60
2010,02,23,17,50,5.60
2010,02,23,17,51,5.60
2010,02,23,17,52,5.60
2010,02,23,17,53,5.60
2010,02,23,17,54,5.60
2010,02,23,17,55,5.60
2010,02,23,17,56,5.60
2010,02,23,17,57,5.60
2010,02,23,17,58,5.60
2010,02,23,17,59,5.60
2010,02,23,18,00,5.60
2010,02,23,18,01,5.60
2010,02,23,18,02,5.60
2010,02,23,18,03,5.60
2010,02,23,18,04,5.60
2010,02,23,18,05,5.60
2010,02,23,18,06,5.60